{"data":{"norad_id":54178,"epoch":"2026-09-20T07:17:22.930368Z","epoch_age_seconds":106133,"freshness":"FRESH","line1":"1 54178U 22141X   26263.30373762 -.00000106  00000+0  79945-5 0  9991","line2":"2 54178  53.1589 194.6353 0000883  79.7374 280.3728 15.34391925215454","mean_motion":15.34391925,"eccentricity":8.83e-5,"inclination_deg":53.1589,"raan_deg":194.6353,"arg_perigee_deg":79.7374,"mean_anomaly_deg":280.3728,"bstar":7.9945e-6,"rev_number":21545,"period_min":93.848251971217,"perigee_km":462.12319260162,"apogee_km":463.33128922656,"semimajor_km":6840.8642409141,"source":"CELESTRAK","updated_at":"2026-09-21T09:00:33.092087Z"}}